EW7152 Weather Reports


time (UTC)temp
C
wind
direction
speed
KPH
gust
KPH
rain 1hr
cm
rain 24hr
cm
rain mn
cm
humidity
%
barometer
mb
20240222110106 20 107 4.8 14.5 0.00 0.03 0.03 88 1012.8
20240222104550 21 95 4.8 12.9 0.00 0.03 0.03 88 1012.7
20240222103049 21 97 4.8 9.7 0.00 0.03 0.03 87 1012.5
20240222101555 21 74 1.6 6.4 0.00 0.03 0.03 86 1012.5
20240222100048 21 91 3.2 6.4 0.00 0.03 0.03 85 1012.3
20240222094548 21 105 4.8 11.3 0.00 0.03 0.03 83 1012.1
20240222093048 22 96 4.8 8.0 0.00 0.03 0.03 78 1011.8
20240222091547 23 324 1.6 3.2 0.00 0.03 0.03 72 1011.7
20240222090052 24 322 0.0 0.0 0.00 0.03 0.03 68 1011.5
20240222084607 24 322 0.0 3.2 0.00 0.03 0.03 67 1011.3
20240222083045 25 322 0.0 6.4 0.00 0.03 0.03 65 1011.2
20240222081545 25 318 3.2 9.7 0.00 0.03 0.03 64 1011.1
20240222080044 25 327 3.2 8.0 0.00 0.03 0.03 63 1011.0
20240222074543 25 320 3.2 6.4 0.00 0.03 0.03 63 1010.8
20240222073043 26 287 1.6 6.4 0.00 0.03 0.03 61 1010.8
20240222071548 26 282 1.6 6.4 0.00 0.03 0.03 60 1010.7
20240222070043 26 264 3.2 8.0 0.00 0.03 0.03 57 1010.5
20240222064540 27 263 1.6 6.4 0.00 0.03 0.03 56 1010.4
20240222063140 27 256 4.8 12.9 0.00 0.03 0.03 57 1010.2
20240222061539 27 333 3.2 9.7 0.00 0.03 0.03 56 1010.2
20240222060036 26 257 1.6 11.3 0.00 0.03 0.03 59 1010.3
20240222054536 26 270 3.2 6.4 0.00 0.03 0.03 60 1010.5
20240222053035 26 316 3.2 9.7 0.00 0.03 0.03 56 1010.4
20240222051534 27 259 3.2 6.4 0.00 0.03 0.03 56 1010.5
20240222050032 27 166 4.8 8.0 0.00 0.03 0.03 54 1010.5
20240222044531 27 260 3.2 9.7 0.00 0.03 0.03 56 1010.8
20240222043126 26 273 3.2 11.3 0.00 0.03 0.03 58 1011.1
20240222041525 25 268 3.2 12.9 0.00 0.03 0.03 59 1011.2
20240222040023 26 241 3.2 9.7 0.00 0.03 0.03 58 1011.3
20240222034523 26 258 3.2 11.3 0.00 0.03 0.03 61 1011.4
20240222033021 26 245 4.8 12.9 0.00 0.03 0.03 61 1011.6
20240222031517 26 293 8.0 14.5 0.00 0.03 0.03 59 1011.9
20240222030020 26 206 3.2 12.9 0.00 0.03 0.03 58 1012.1
20240222024521 27 247 3.2 9.7 0.00 0.03 0.03 60 1012.1
20240222023009 26 276 3.2 11.3 0.00 0.03 0.03 61 1012.3
20240222021516 26 280 6.4 17.7 0.00 0.03 0.03 61 1012.6
20240222020003 25 301 4.8 20.9 0.00 0.03 0.03 64 1012.8
20240222014503 26 236 6.4 16.1 0.00 0.03 0.03 64 1013.1
20240222013058 25 284 8.0 14.5 0.00 0.03 0.03 67 1013.1
20240222011558 25 253 4.8 17.7 0.00 0.03 0.03 70 1013.2
20240222010108 25 181 6.4 16.1 0.00 0.03 0.03 68 1013.6
20240222004559 25 256 6.4 12.9 0.00 0.03 0.03 71 1013.8
20240222003054 24 296 4.8 17.7 0.00 0.03 0.03 69 1014.1
20240222001602 24 306 6.4 14.5 0.00 0.03 0.03 69 1014.3
20240222000059 23 316 6.4 16.1 0.00 0.03 0.03 70 1014.4
20240221234547 23 260 6.4 14.5 0.00 0.03 0.03 71 1014.5
20240221233043 23 305 4.8 16.1 0.00 0.03 0.03 74 1014.6
20240221231538 22 252 8.0 16.1 0.00 0.03 0.03 75 1014.7
20240221230045 21 293 6.4 16.1 0.00 0.03 0.03 77 1014.8
20240221224535 21 265 8.0 16.1 0.00 0.03 0.03 77 1014.8
20240221223034 21 261 4.8 17.7 0.00 0.03 0.03 79 1014.8
20240221221537 21 274 6.4 16.1 0.00 0.03 0.03 82 1014.8
20240221220039 20 251 4.8 12.9 0.00 0.03 0.03 89 1014.8
20240221214523 18 240 1.6 6.4 0.00 0.03 0.03 94 1014.7
20240221213020 18 176 0.0 3.2 0.00 0.03 0.03 95 1014.7
20240221211517 16 176 1.6 3.2 0.00 0.03 0.03 95 1014.7
20240221210025 15 203 0.0 3.2 0.00 0.03 0.03 94 1014.7
20240221204513 14 203 1.6 4.8 0.00 0.03 0.03 94 1014.7
20240221203013 13 112 1.6 4.8 0.03 0.03 0.03 93 1014.7
20240221201513 13 110 0.0 3.2 0.03 0.03 0.03 92 1014.5
20240221200011 13 110 0.0 1.6 0.03 0.03 0.03 91 1014.4
20240221194510 13 110 0.0 1.6 0.03 0.03 0.03 91 1014.3
20240221193014 13 109 0.0 3.2 0.00 0.00 0.00 91 1014.1
20240221191512 13 109 0.0 0.0 0.00 0.00 0.00 90 1014.0
20240221190015 13 109 0.0 3.2 0.00 0.00 0.00 90 1013.9
20240221184506 12 109 0.0 0.0 0.00 0.00 0.00 88 1013.9
20240221183006 12 109 0.0 0.0 0.00 0.00 0.00 87 1013.7
20240221181505 12 109 0.0 1.6 0.00 0.00 0.00 87 1013.6
20240221180007 12 109 0.0 0.0 0.00 0.00 0.00 87 1013.4
20240221174502 13 109 0.0 0.0 0.00 0.00 0.00 86 1013.3
20240221173104 13 109 0.0 0.0 0.00 0.00 0.00 86 1013.2
20240221171602 13 109 0.0 0.0 0.00 0.00 0.00 86 1013.1
20240221170056 13 109 0.0 0.0 0.00 0.00 0.00 86 1013.1
20240221164614 13 109 0.0 0.0 0.00 0.00 0.00 86 1013.3
20240221163055 14 109 0.0 0.0 0.00 0.00 0.00 86 1013.3
20240221161551 14 109 0.0 0.0 0.00 0.00 0.00 86 1013.3
20240221160050 14 109 0.0 0.0 0.00 0.00 0.00 86 1013.3
20240221154624 15 109 0.0 0.0 0.00 0.00 0.00 86 1013.5
20240221153046 15 109 0.0 0.0 0.00 0.00 0.00 86 1013.5
20240221151549 15 109 0.0 0.0 0.00 0.00 0.00 86 1013.8
20240221150050 15 109 0.0 1.6 0.00 0.00 0.00 86 1013.9
20240221144539 15 109 0.0 1.6 0.00 0.00 0.00 86 1014.1
20240221143035 16 109 0.0 3.2 0.00 0.00 0.00 87 1014.2
20240221141537 16 109 1.6 6.4 0.00 0.00 0.00 87 1014.4
20240221140031 16 59 0.0 4.8 0.00 0.00 0.00 87 1014.6
20240221134543 16 84 1.6 6.4 0.00 0.00 0.00 87 1014.7
20240221133031 16 93 0.0 3.2 0.00 0.00 0.00 87 1014.8
20240221131534 15 93 0.0 1.6 0.00 0.00 0.00 87 1015.2
20240221130022 15 93 0.0 0.0 0.00 0.00 0.00 87 1015.1
20240221124522 15 93 0.0 1.6 0.00 0.00 0.00 86 1014.9
20240221123021 16 93 0.0 1.6 0.00 0.00 0.00 87 1015.0
20240221121521 16 93 0.0 4.8 0.00 0.00 0.00 87 1014.9
20240221120021 16 94 0.0 1.6 0.00 0.00 0.00 86 1015.0
20240221114520 16 94 0.0 3.2 0.00 0.00 0.00 86 1015.1
20240221113019 16 98 3.2 14.5 0.00 0.00 0.00 87 1014.9
20240221111520 16 136 4.8 12.9 0.00 0.00 0.00 87 1014.8